Time,TemperatureF,DewpointF,PressureIn,WindDirection,WindDirectionDegrees,WindSpeedMPH,WindSpeedGustMPH,Humidity,HourlyPrecipIn,Conditions,Clouds,dailyrainin,SoftwareType,DateUTC
2013-04-02 00:00:00,39.6,24.8,29.89,NW,317,12.0,17.0,55,0.00,,,0.00,meteohub,2013-04-02 04:00:00,
2013-04-02 00:05:00,39.6,23.9,29.90,NW,325,9.0,19.0,53,0.00,,,0.00,meteohub,2013-04-02 04:05:00,
2013-04-02 00:10:00,39.4,24.6,29.90,WNW,297,11.0,19.0,55,0.00,,,0.00,meteohub,2013-04-02 04:10:00,
2013-04-02 00:15:00,39.2,22.6,29.90,NW,319,16.0,19.0,51,0.00,,,0.00,meteohub,2013-04-02 04:15:00,
2013-04-02 00:20:00,39.2,23.5,29.90,WNW,296,9.0,21.0,53,0.00,,,0.00,meteohub,2013-04-02 04:20:00,
2013-04-02 00:25:00,39.0,24.6,29.91,NW,319,10.0,21.0,56,0.00,,,0.00,meteohub,2013-04-02 04:25:00,
2013-04-02 00:30:00,39.0,25.2,29.91,NW,312,16.0,21.0,57,0.00,,,0.00,meteohub,2013-04-02 04:30:00,
2013-04-02 00:35:00,38.8,25.0,29.91,NW,321,12.0,20.0,57,0.00,,,0.00,meteohub,2013-04-02 04:35:00,
2013-04-02 00:40:00,38.8,25.0,29.91,NNW,330,15.0,20.0,57,0.00,,,0.00,meteohub,2013-04-02 04:40:00,
2013-04-02 00:45:00,38.7,23.4,29.91,NW,325,14.0,20.0,54,0.00,,,0.00,meteohub,2013-04-02 04:45:00,
2013-04-02 00:50:00,38.5,22.5,29.92,WNW,291,11.0,19.0,52,0.00,,,0.00,meteohub,2013-04-02 04:50:00,
2013-04-02 00:55:00,38.5,25.3,29.92,NW,326,9.0,19.0,59,0.00,,,0.00,meteohub,2013-04-02 04:55:00,
2013-04-02 01:00:00,38.3,25.7,29.92,NW,314,9.0,22.0,60,0.00,,,0.00,meteohub,2013-04-02 05:00:00,
2013-04-02 01:05:00,38.3,26.4,29.93,NW,319,12.0,22.0,62,0.00,,,0.00,meteohub,2013-04-02 05:05:00,
2013-04-02 01:10:00,38.1,24.3,29.92,NW,307,9.0,22.0,57,0.00,,,0.00,meteohub,2013-04-02 05:10:00,
2013-04-02 01:15:00,38.1,24.6,29.93,NNW,337,14.0,17.0,58,0.00,,,0.00,meteohub,2013-04-02 05:15:00,
2013-04-02 01:20:00,37.9,25.0,29.93,NW,319,10.0,17.0,59,0.00,,,0.00,meteohub,2013-04-02 05:20:00,
2013-04-02 01:25:00,37.9,24.4,29.93,WNW,293,13.0,17.0,58,0.00,,,0.00,meteohub,2013-04-02 05:25:00,
2013-04-02 01:30:00,37.9,24.1,29.93,WNW,302,9.0,17.0,57,0.00,,,0.00,meteohub,2013-04-02 05:30:00,
2013-04-02 01:36:00,37.8,25.2,29.93,NW,310,8.0,17.0,60,0.00,,,0.00,meteohub,2013-04-02 05:36:00,
2013-04-02 01:41:00,37.8,23.9,29.93,NNW,328,11.0,15.0,57,0.00,,,0.00,meteohub,2013-04-02 05:41:00,
2013-04-02 01:46:00,37.8,22.6,29.93,WNW,288,8.0,14.0,54,0.00,,,0.00,meteohub,2013-04-02 05:46:00,
2013-04-02 01:51:00,37.6,25.0,29.93,NNW,333,10.0,14.0,60,0.00,,,0.00,meteohub,2013-04-02 05:51:00,
2013-04-02 01:56:00,37.4,24.4,29.93,WNW,301,6.0,17.0,59,0.00,,,0.00,meteohub,2013-04-02 05:56:00,
2013-04-02 02:01:00,37.2,24.6,29.93,NW,304,8.0,17.0,60,0.00,,,0.00,meteohub,2013-04-02 06:01:00,
2013-04-02 02:06:00,37.2,26.6,29.93,WNW,302,12.0,17.0,65,0.00,,,0.00,meteohub,2013-04-02 06:06:00,
2013-04-02 02:11:00,37.2,27.0,29.94,NW,314,11.0,17.0,66,0.00,,,0.00,meteohub,2013-04-02 06:11:00,
2013-04-02 02:16:00,37.0,25.7,29.93,NW,308,9.0,16.0,63,0.00,,,0.00,meteohub,2013-04-02 06:16:00,
2013-04-02 02:21:00,37.0,24.4,29.93,WNW,294,10.0,16.0,60,0.00,,,0.00,meteohub,2013-04-02 06:21:00,
2013-04-02 02:26:00,36.9,23.9,29.94,NW,307,13.0,21.0,59,0.00,,,0.00,meteohub,2013-04-02 06:26:00,
2013-04-02 02:31:00,36.9,25.0,29.94,NW,311,8.0,21.0,62,0.00,,,0.00,meteohub,2013-04-02 06:31:00,
2013-04-02 02:37:00,36.9,24.3,29.94,WNW,300,8.0,16.0,60,0.00,,,0.00,meteohub,2013-04-02 06:37:00,
2013-04-02 02:42:00,36.9,23.9,29.93,WNW,301,7.0,16.0,59,0.00,,,0.00,meteohub,2013-04-02 06:42:00,
2013-04-02 02:47:00,36.7,24.4,29.94,NW,319,13.0,16.0,61,0.00,,,0.00,meteohub,2013-04-02 06:47:00,
2013-04-02 02:52:00,36.7,24.1,29.94,NW,314,12.0,15.0,60,0.00,,,0.00,meteohub,2013-04-02 06:52:00,
2013-04-02 02:57:00,36.7,23.4,29.94,NW,314,10.0,15.0,58,0.00,,,0.00,meteohub,2013-04-02 06:57:00,
2013-04-02 03:02:00,36.7,24.4,29.94,WNW,302,9.0,15.0,61,0.00,,,0.00,meteohub,2013-04-02 07:02:00,
2013-04-02 03:07:00,36.5,23.2,29.94,NW,309,7.0,15.0,58,0.00,,,0.00,meteohub,2013-04-02 07:07:00,
2013-04-02 03:12:00,36.5,25.5,29.94,WNW,282,7.0,15.0,64,0.00,,,0.00,meteohub,2013-04-02 07:12:00,
2013-04-02 03:17:00,36.3,23.4,29.94,WNW,289,7.0,12.0,59,0.00,,,0.00,meteohub,2013-04-02 07:17:00,
2013-04-02 03:22:00,36.1,23.5,29.94,WNW,296,6.0,12.0,60,0.00,,,0.00,meteohub,2013-04-02 07:22:00,
2013-04-02 03:27:00,36.1,24.4,29.94,WNW,284,3.0,13.0,62,0.00,,,0.00,meteohub,2013-04-02 07:27:00,
2013-04-02 03:32:00,36.1,24.8,29.94,WNW,285,4.0,13.0,63,0.00,,,0.00,meteohub,2013-04-02 07:32:00,
2013-04-02 03:37:00,36.1,23.5,29.94,WNW,294,7.0,13.0,60,0.00,,,0.00,meteohub,2013-04-02 07:37:00,
2013-04-02 03:42:00,36.1,24.8,29.94,NW,314,7.0,12.0,63,0.00,,,0.00,meteohub,2013-04-02 07:42:00,
2013-04-02 03:47:00,36.1,25.2,29.94,WNW,303,6.0,12.0,64,0.00,,,0.00,meteohub,2013-04-02 07:47:00,
2013-04-02 03:52:00,36.0,23.9,29.94,NW,309,9.0,13.0,61,0.00,,,0.00,meteohub,2013-04-02 07:52:00,
2013-04-02 03:57:00,36.1,25.2,29.94,WNW,295,10.0,14.0,64,0.00,,,0.00,meteohub,2013-04-02 07:57:00,
2013-04-02 04:02:00,36.0,23.4,29.94,NW,312,11.0,14.0,60,0.00,,,0.00,meteohub,2013-04-02 08:02:00,
2013-04-02 04:07:00,35.8,23.2,29.94,NW,314,7.0,14.0,60,0.00,,,0.00,meteohub,2013-04-02 08:07:00,
2013-04-02 04:12:00,35.8,25.2,29.94,NW,314,9.0,14.0,65,0.00,,,0.00,meteohub,2013-04-02 08:12:00,
2013-04-02 04:17:00,35.8,24.4,29.94,NW,310,10.0,14.0,63,0.00,,,0.00,meteohub,2013-04-02 08:17:00,
2013-04-02 04:22:00,35.6,23.9,29.94,NW,325,7.0,13.0,62,0.00,,,0.00,meteohub,2013-04-02 08:22:00,
2013-04-02 04:27:00,35.4,23.4,29.94,NNW,335,5.0,13.0,61,0.00,,,0.00,meteohub,2013-04-02 08:27:00,
2013-04-02 04:32:00,35.4,23.7,29.94,NW,326,11.0,13.0,62,0.00,,,0.00,meteohub,2013-04-02 08:32:00,
2013-04-02 04:37:00,35.4,23.7,29.94,NW,312,9.0,13.0,62,0.00,,,0.00,meteohub,2013-04-02 08:37:00,
2013-04-02 04:42:00,35.2,22.3,29.95,NNW,339,7.0,12.0,59,0.00,,,0.00,meteohub,2013-04-02 08:42:00,
2013-04-02 04:47:00,35.2,22.8,29.95,WNW,303,8.0,12.0,60,0.00,,,0.00,meteohub,2013-04-02 08:47:00,
2013-04-02 04:52:00,35.2,24.6,29.95,NW,307,7.0,12.0,65,0.00,,,0.00,meteohub,2013-04-02 08:52:00,
2013-04-02 04:57:00,35.2,24.6,29.95,WNW,293,8.0,12.0,65,0.00,,,0.00,meteohub,2013-04-02 08:57:00,
2013-04-02 05:03:00,35.2,24.6,29.95,WNW,302,5.0,13.0,65,0.00,,,0.00,meteohub,2013-04-02 09:03:00,
2013-04-02 05:08:00,35.2,23.2,29.95,NW,311,7.0,13.0,61,0.00,,,0.00,meteohub,2013-04-02 09:08:00,
2013-04-02 05:13:00,35.2,23.9,29.96,WNW,291,8.0,13.0,63,0.00,,,0.00,meteohub,2013-04-02 09:13:00,
2013-04-02 05:18:00,35.2,23.5,29.96,WNW,302,7.0,12.0,62,0.00,,,0.00,meteohub,2013-04-02 09:18:00,
2013-04-02 05:23:00,35.2,22.8,29.96,WNW,290,8.0,12.0,60,0.00,,,0.00,meteohub,2013-04-02 09:23:00,
2013-04-02 05:28:00,35.2,23.5,29.96,NW,304,10.0,13.0,62,0.00,,,0.00,meteohub,2013-04-02 09:28:00,
2013-04-02 05:33:00,35.1,24.1,29.96,West,274,12.0,13.0,64,0.00,,,0.00,meteohub,2013-04-02 09:33:00,
2013-04-02 05:38:00,35.1,23.7,29.96,WNW,294,5.0,16.0,63,0.00,,,0.00,meteohub,2013-04-02 09:38:00,
2013-04-02 05:43:00,35.1,23.4,29.96,NNW,328,14.0,16.0,62,0.00,,,0.00,meteohub,2013-04-02 09:43:00,
2013-04-02 05:48:00,34.9,23.2,29.96,West,274,9.0,16.0,62,0.00,,,0.00,meteohub,2013-04-02 09:48:00,
2013-04-02 05:53:00,34.9,22.5,29.96,NW,304,10.0,14.0,60,0.00,,,0.00,meteohub,2013-04-02 09:53:00,
2013-04-02 05:58:00,35.1,24.1,29.97,NW,318,6.0,14.0,64,0.00,,,0.00,meteohub,2013-04-02 09:58:00,
2013-04-02 06:03:00,34.9,22.8,29.97,West,277,7.0,13.0,61,0.00,,,0.00,meteohub,2013-04-02 10:03:00,
2013-04-02 06:08:00,34.9,23.9,29.97,WNW,293,6.0,12.0,64,0.00,,,0.00,meteohub,2013-04-02 10:08:00,
2013-04-02 06:13:00,34.0,22.6,29.97,WNW,298,11.0,13.0,63,0.00,,,0.00,meteohub,2013-04-02 10:13:00,
2013-04-02 06:18:00,34.0,22.6,29.97,WNW,298,11.0,13.0,63,0.00,,,0.00,meteohub,2013-04-02 10:18:00,
2013-04-02 07:07:00,35.2,23.2,29.99,North,-999,-999.0,-999.0,61,0.00,,,0.00,meteohub,2013-04-02 11:07:00,
2013-04-02 07:12:00,35.2,23.9,29.99,North,-999,-999.0,-999.0,63,0.00,,,0.00,meteohub,2013-04-02 11:12:00,
2013-04-02 07:17:00,35.4,24.1,29.99,NW,309,6.0,-999.0,63,0.00,,,0.00,meteohub,2013-04-02 11:17:00,
2013-04-02 07:22:00,35.4,23.4,29.99,WNW,290,5.0,14.0,61,0.00,,,0.00,meteohub,2013-04-02 11:22:00,
2013-04-02 07:27:00,35.2,23.9,29.99,WNW,291,7.0,14.0,63,0.00,,,0.00,meteohub,2013-04-02 11:27:00,
2013-04-02 07:32:00,35.2,24.3,30.00,WNW,294,6.0,14.0,64,0.00,,,0.00,meteohub,2013-04-02 11:32:00,
2013-04-02 07:37:00,35.4,24.4,30.00,WNW,295,8.0,16.0,64,0.00,,,0.00,meteohub,2013-04-02 11:37:00,
2013-04-02 07:42:00,35.4,23.7,30.00,West,280,9.0,16.0,62,0.00,,,0.00,meteohub,2013-04-02 11:42:00,
2013-04-02 07:47:00,35.4,23.7,30.00,West,271,10.0,16.0,62,0.00,,,0.00,meteohub,2013-04-02 11:47:00,
2013-04-02 07:53:00,35.4,23.4,30.00,WNW,287,9.0,16.0,61,0.00,,,0.00,meteohub,2013-04-02 11:53:00,
2013-04-02 07:58:00,35.2,23.9,30.00,WNW,291,9.0,16.0,63,0.00,,,0.00,meteohub,2013-04-02 11:58:00,
2013-04-02 08:03:00,35.4,23.7,30.00,WNW,295,8.0,16.0,62,0.00,,,0.00,meteohub,2013-04-02 12:03:00,
2013-04-02 08:08:00,35.4,24.1,30.01,WNW,285,10.0,15.0,63,0.00,,,0.00,meteohub,2013-04-02 12:08:00,
2013-04-02 08:13:00,35.4,23.0,30.01,WNW,287,7.0,15.0,60,0.00,,,0.00,meteohub,2013-04-02 12:13:00,
2013-04-02 08:18:00,35.6,23.5,30.00,West,276,8.0,16.0,61,0.00,,,0.00,meteohub,2013-04-02 12:18:00,
2013-04-02 08:23:00,35.6,23.0,30.00,WNW,290,7.0,17.0,60,0.00,,,0.00,meteohub,2013-04-02 12:23:00,
2013-04-02 08:28:00,35.8,24.1,30.01,WNW,285,5.0,17.0,62,0.00,,,0.00,meteohub,2013-04-02 12:28:00,
2013-04-02 08:33:00,35.6,23.9,30.01,WNW,290,8.0,17.0,62,0.00,,,0.00,meteohub,2013-04-02 12:33:00,
2013-04-02 08:38:00,35.6,23.0,30.01,NW,307,8.0,13.0,60,0.00,,,0.00,meteohub,2013-04-02 12:38:00,
2013-04-02 08:43:00,35.4,22.5,30.01,WNW,288,11.0,13.0,59,0.00,,,0.00,meteohub,2013-04-02 12:43:00,
2013-04-02 08:48:00,35.4,23.7,30.01,West,264,9.0,14.0,62,0.00,,,0.00,meteohub,2013-04-02 12:48:00,
2013-04-02 08:53:00,35.4,24.4,30.01,NW,308,8.0,14.0,64,0.00,,,0.00,meteohub,2013-04-02 12:53:00,
2013-04-02 08:58:00,35.2,23.2,30.01,West,270,6.0,14.0,61,0.00,,,0.00,meteohub,2013-04-02 12:58:00,
2013-04-02 09:03:00,35.4,25.2,30.01,NNW,332,8.0,14.0,66,0.00,,,0.00,meteohub,2013-04-02 13:03:00,
2013-04-02 09:08:00,35.2,23.2,30.01,WNW,297,7.0,12.0,61,0.00,,,0.00,meteohub,2013-04-02 13:08:00,
2013-04-02 09:13:00,35.2,23.2,30.01,WNW,288,4.0,14.0,61,0.00,,,0.00,meteohub,2013-04-02 13:13:00,
2013-04-02 09:18:00,35.2,23.2,30.01,WNW,288,7.0,16.0,61,0.00,,,0.00,meteohub,2013-04-02 13:18:00,
2013-04-02 09:23:00,35.2,23.2,30.01,WNW,283,10.0,16.0,61,0.00,,,0.00,meteohub,2013-04-02 13:23:00,
2013-04-02 09:28:00,35.2,21.9,30.01,WNW,288,9.0,16.0,58,0.00,,,0.00,meteohub,2013-04-02 13:28:00,
2013-04-02 09:33:00,35.2,23.2,30.01,WNW,296,5.0,12.0,61,0.00,,,0.00,meteohub,2013-04-02 13:33:00,
2013-04-02 09:38:00,35.2,21.9,30.01,West,271,9.0,12.0,58,0.00,,,0.00,meteohub,2013-04-02 13:38:00,
2013-04-02 09:43:00,35.4,23.4,30.01,West,277,6.0,12.0,61,0.00,,,0.00,meteohub,2013-04-02 13:43:00,
2013-04-02 09:48:00,35.6,23.0,30.01,WSW,252,9.0,11.0,60,0.00,,,0.00,meteohub,2013-04-02 13:48:00,
2013-04-02 09:53:00,35.8,24.1,30.01,WNW,284,11.0,12.0,62,0.00,,,0.00,meteohub,2013-04-02 13:53:00,
2013-04-02 09:58:00,35.6,23.0,30.01,WNW,288,6.0,12.0,60,0.00,,,0.00,meteohub,2013-04-02 13:58:00,
2013-04-02 10:03:00,35.8,23.2,30.01,West,274,10.0,12.0,60,0.00,,,0.00,meteohub,2013-04-02 14:03:00,
2013-04-02 10:08:00,35.8,23.7,30.01,WNW,288,6.0,11.0,61,0.00,,,0.00,meteohub,2013-04-02 14:08:00,
2013-04-02 10:13:00,35.8,23.2,30.01,West,280,11.0,14.0,60,0.00,,,0.00,meteohub,2013-04-02 14:13:00,
2013-04-02 10:18:00,35.8,23.7,30.01,West,275,10.0,15.0,61,0.00,,,0.00,meteohub,2013-04-02 14:18:00,
2013-04-02 10:23:00,35.8,21.6,30.01,WNW,285,10.0,15.0,56,0.00,,,0.00,meteohub,2013-04-02 14:23:00,
2013-04-02 10:28:00,36.0,22.3,30.01,West,276,7.0,13.0,57,0.00,,,0.00,meteohub,2013-04-02 14:28:00,
2013-04-02 10:33:00,36.1,21.6,30.01,WNW,285,7.0,13.0,55,0.00,,,0.00,meteohub,2013-04-02 14:33:00,
2013-04-02 10:38:00,36.1,21.9,30.01,West,266,10.0,13.0,56,0.00,,,0.00,meteohub,2013-04-02 14:38:00,
2013-04-02 10:43:00,36.1,21.6,30.01,West,271,10.0,15.0,55,0.00,,,0.00,meteohub,2013-04-02 14:43:00,
2013-04-02 10:48:00,36.1,20.7,30.01,West,280,10.0,15.0,53,0.00,,,0.00,meteohub,2013-04-02 14:48:00,
2013-04-02 10:53:00,36.1,21.9,30.01,WNW,285,7.0,15.0,56,0.00,,,0.00,meteohub,2013-04-02 14:53:00,
2013-04-02 10:58:00,36.1,20.3,30.01,WNW,289,10.0,13.0,52,0.00,,,0.00,meteohub,2013-04-02 14:58:00,
2013-04-02 11:03:00,36.3,21.7,30.01,West,274,7.0,13.0,55,0.00,,,0.00,meteohub,2013-04-02 15:03:00,
2013-04-02 11:08:00,36.5,21.4,30.01,West,280,7.0,13.0,54,0.00,,,0.00,meteohub,2013-04-02 15:08:00,
2013-04-02 11:13:00,36.7,21.2,30.01,WSW,257,10.0,13.0,53,0.00,,,0.00,meteohub,2013-04-02 15:13:00,
2013-04-02 11:19:00,36.7,21.6,30.01,WNW,284,6.0,13.0,54,0.00,,,0.00,meteohub,2013-04-02 15:19:00,
2013-04-02 11:24:00,36.9,22.6,30.01,WNW,302,7.0,12.0,56,0.00,,,0.00,meteohub,2013-04-02 15:24:00,
2013-04-02 11:29:00,36.9,20.8,30.01,WNW,287,10.0,13.0,52,0.00,,,0.00,meteohub,2013-04-02 15:29:00,
2013-04-02 11:34:00,37.0,20.7,30.01,WNW,294,8.0,13.0,51,0.00,,,0.00,meteohub,2013-04-02 15:34:00,
2013-04-02 11:39:00,37.0,20.7,30.01,West,273,8.0,13.0,51,0.00,,,0.00,meteohub,2013-04-02 15:39:00,
2013-04-02 11:44:00,37.0,21.0,30.00,West,271,9.0,13.0,52,0.00,,,0.00,meteohub,2013-04-02 15:44:00,
2013-04-02 11:49:00,37.2,21.7,30.00,NW,308,9.0,13.0,53,0.00,,,0.00,meteohub,2013-04-02 15:49:00,
2013-04-02 11:54:00,37.4,21.9,29.99,West,278,6.0,13.0,53,0.00,,,0.00,meteohub,2013-04-02 15:54:00,
2013-04-02 11:59:00,37.8,22.1,30.00,WNW,294,6.0,13.0,53,0.00,,,0.00,meteohub,2013-04-02 15:59:00,
2013-04-02 12:04:00,37.8,21.2,29.99,West,280,11.0,11.0,51,0.00,,,0.00,meteohub,2013-04-02 16:04:00,
2013-04-02 12:09:00,37.6,20.1,29.99,West,276,8.0,13.0,49,0.00,,,0.00,meteohub,2013-04-02 16:09:00,
2013-04-02 12:14:00,37.8,21.7,29.99,WNW,291,9.0,13.0,52,0.00,,,0.00,meteohub,2013-04-02 16:14:00,
2013-04-02 12:19:00,37.8,21.2,29.99,WNW,300,10.0,13.0,51,0.00,,,0.00,meteohub,2013-04-02 16:19:00,
2013-04-02 12:25:00,37.8,21.2,30.00,WNW,289,5.0,13.0,51,0.00,,,0.00,meteohub,2013-04-02 16:25:00,
2013-04-02 12:30:00,37.9,21.9,29.99,WNW,283,7.0,12.0,52,0.00,,,0.00,meteohub,2013-04-02 16:30:00,
2013-04-02 12:34:00,37.9,19.9,29.99,WNW,294,10.0,12.0,48,0.00,,,0.00,meteohub,2013-04-02 16:34:00,
2013-04-02 12:37:00,37.9,21.9,29.99,West,276,8.0,13.0,52,0.00,,,0.00,meteohub,2013-04-02 16:37:00,
2013-04-02 12:47:00,37.9,21.0,29.99,WSW,255,9.0,13.0,50,0.00,,,0.00,meteohub,2013-04-02 16:47:00,
2013-04-02 12:52:00,38.1,20.1,29.99,WNW,285,10.0,13.0,48,0.00,,,0.00,meteohub,2013-04-02 16:52:00,
2013-04-02 12:57:00,38.1,23.0,29.99,West,280,8.0,13.0,54,0.00,,,0.00,meteohub,2013-04-02 16:57:00,
2013-04-02 13:02:00,38.3,22.6,29.99,WSW,256,9.0,13.0,53,0.00,,,0.00,meteohub,2013-04-02 17:02:00,
2013-04-02 13:07:00,38.5,21.4,29.99,West,271,11.0,12.0,50,0.00,,,0.00,meteohub,2013-04-02 17:07:00,
2013-04-02 13:12:00,38.7,24.8,29.99,WNW,282,6.0,12.0,57,0.00,,,0.00,meteohub,2013-04-02 17:12:00,
2013-04-02 13:17:00,38.7,20.7,29.99,West,270,6.0,12.0,48,0.00,,,0.00,meteohub,2013-04-02 17:17:00,
2013-04-02 13:22:00,38.7,20.1,29.99,WSW,255,8.0,12.0,47,0.00,,,0.00,meteohub,2013-04-02 17:22:00,
2013-04-02 13:27:00,38.8,23.5,29.98,West,266,11.0,12.0,54,0.00,,,0.00,meteohub,2013-04-02 17:27:00,
2013-04-02 13:32:00,38.8,21.4,29.98,West,275,9.0,12.0,49,0.00,,,0.00,meteohub,2013-04-02 17:32:00,
2013-04-02 13:37:00,39.0,23.7,29.98,West,269,8.0,13.0,54,0.00,,,0.00,meteohub,2013-04-02 17:37:00,
2013-04-02 13:42:00,39.0,21.9,29.98,West,276,6.0,13.0,50,0.00,,,0.00,meteohub,2013-04-02 17:42:00,
2013-04-02 13:47:00,39.0,21.6,29.97,West,280,10.0,13.0,49,0.00,,,0.00,meteohub,2013-04-02 17:47:00,
2013-04-02 13:52:00,39.0,21.9,29.98,WNW,293,9.0,13.0,50,0.00,,,0.00,meteohub,2013-04-02 17:52:00,
2013-04-02 13:57:00,39.4,23.2,29.97,West,264,9.0,13.0,52,0.00,,,0.00,meteohub,2013-04-02 17:57:00,
2013-04-02 14:03:00,39.2,22.1,29.98,WNW,283,6.0,14.0,50,0.00,,,0.00,meteohub,2013-04-02 18:03:00,
2013-04-02 14:08:00,39.4,21.4,29.98,West,263,7.0,14.0,48,0.00,,,0.00,meteohub,2013-04-02 18:08:00,
2013-04-02 14:13:00,39.4,21.7,29.98,West,281,9.0,14.0,49,0.00,,,0.00,meteohub,2013-04-02 18:13:00,
2013-04-02 14:18:00,39.7,23.2,29.97,West,263,6.0,14.0,51,0.00,,,0.00,meteohub,2013-04-02 18:18:00,
2013-04-02 14:23:00,39.7,23.2,29.97,West,260,6.0,12.0,51,0.00,,,0.00,meteohub,2013-04-02 18:23:00,
2013-04-02 14:28:00,39.9,22.8,29.97,WNW,284,9.0,12.0,50,0.00,,,0.00,meteohub,2013-04-02 18:28:00,
2013-04-02 14:33:00,40.3,26.2,29.97,WSW,257,10.0,12.0,57,0.00,,,0.00,meteohub,2013-04-02 18:33:00,
2013-04-02 14:38:00,39.9,23.2,29.97,WSW,253,7.0,12.0,51,0.00,,,0.00,meteohub,2013-04-02 18:38:00,
2013-04-02 14:43:00,39.9,23.7,29.96,WNW,282,8.0,12.0,52,0.00,,,0.00,meteohub,2013-04-02 18:43:00,
2013-04-02 14:48:00,39.9,22.3,29.96,WNW,287,9.0,12.0,49,0.00,,,0.00,meteohub,2013-04-02 18:48:00,
2013-04-02 14:53:00,40.1,21.9,29.96,WNW,284,10.0,13.0,48,0.00,,,0.00,meteohub,2013-04-02 18:53:00,
2013-04-02 14:59:00,40.1,22.5,29.97,West,281,8.0,14.0,49,0.00,,,0.00,meteohub,2013-04-02 18:59:00,
2013-04-02 15:04:00,40.5,22.3,29.96,West,277,12.0,14.0,48,0.00,,,0.00,meteohub,2013-04-02 19:04:00,
2013-04-02 15:09:00,40.3,23.5,29.96,West,277,9.0,14.0,51,0.00,,,0.00,meteohub,2013-04-02 19:09:00,
2013-04-02 15:14:00,40.5,23.7,29.96,West,276,10.0,13.0,51,0.00,,,0.00,meteohub,2013-04-02 19:14:00,
2013-04-02 15:19:00,40.6,24.8,29.96,West,280,10.0,12.0,53,0.00,,,0.00,meteohub,2013-04-02 19:19:00,
2013-04-02 15:24:00,40.6,24.4,29.96,West,271,9.0,14.0,52,0.00,,,0.00,meteohub,2013-04-02 19:24:00,
2013-04-02 15:29:00,40.6,23.0,29.96,WNW,295,9.0,14.0,49,0.00,,,0.00,meteohub,2013-04-02 19:29:00,
2013-04-02 15:34:00,40.6,23.9,29.96,WNW,291,9.0,14.0,51,0.00,,,0.00,meteohub,2013-04-02 19:34:00,
2013-04-02 15:39:00,40.6,22.5,29.96,WNW,287,7.0,14.0,48,0.00,,,0.00,meteohub,2013-04-02 19:39:00,
2013-04-02 15:44:00,40.6,22.5,29.96,WNW,285,11.0,14.0,48,0.00,,,0.00,meteohub,2013-04-02 19:44:00,
2013-04-02 15:49:00,40.8,23.2,29.96,West,273,9.0,14.0,49,0.00,,,0.00,meteohub,2013-04-02 19:49:00,
2013-04-02 15:54:00,40.8,23.2,29.96,West,271,8.0,15.0,49,0.00,,,0.00,meteohub,2013-04-02 19:54:00,
2013-04-02 15:59:00,40.8,22.6,29.96,West,280,8.0,15.0,48,0.00,,,0.00,meteohub,2013-04-02 19:59:00,
2013-04-02 16:04:00,41.2,24.4,29.96,WNW,284,7.0,15.0,51,0.00,,,0.00,meteohub,2013-04-02 20:04:00,
2013-04-02 16:09:00,41.5,24.8,29.96,WNW,285,10.0,13.0,51,0.00,,,0.00,meteohub,2013-04-02 20:09:00,
2013-04-02 16:15:00,41.4,25.0,29.96,West,273,12.0,13.0,52,0.00,,,0.00,meteohub,2013-04-02 20:15:00,
2013-04-02 16:20:00,41.5,24.3,29.96,WNW,285,5.0,12.0,50,0.00,,,0.00,meteohub,2013-04-02 20:20:00,
2013-04-02 16:25:00,41.7,24.4,29.96,WNW,298,11.0,12.0,50,0.00,,,0.00,meteohub,2013-04-02 20:25:00,
2013-04-02 16:30:00,41.5,25.7,29.96,West,278,11.0,13.0,53,0.00,,,0.00,meteohub,2013-04-02 20:30:00,
2013-04-02 16:35:00,41.5,24.3,29.96,West,280,9.0,13.0,50,0.00,,,0.00,meteohub,2013-04-02 20:35:00,
2013-04-02 16:40:00,41.5,25.2,29.96,WNW,288,5.0,13.0,52,0.00,,,0.00,meteohub,2013-04-02 20:40:00,
2013-04-02 16:45:00,41.4,23.2,29.96,WNW,290,7.0,13.0,48,0.00,,,0.00,meteohub,2013-04-02 20:45:00,
2013-04-02 16:50:00,41.4,22.1,29.97,NW,316,8.0,13.0,46,0.00,,,0.00,meteohub,2013-04-02 20:50:00,
2013-04-02 16:55:00,41.5,24.3,29.96,WNW,290,6.0,13.0,50,0.00,,,0.00,meteohub,2013-04-02 20:55:00,
2013-04-02 17:00:00,41.5,25.2,29.97,WNW,290,8.0,12.0,52,0.00,,,0.00,meteohub,2013-04-02 21:00:00,
2013-04-02 17:05:00,41.5,24.8,29.96,WNW,284,10.0,12.0,51,0.00,,,0.00,meteohub,2013-04-02 21:05:00,
2013-04-02 17:10:00,41.5,24.3,29.97,West,275,9.0,12.0,50,0.00,,,0.00,meteohub,2013-04-02 21:10:00,
2013-04-02 17:15:00,41.5,22.8,29.97,West,280,7.0,12.0,47,0.00,,,0.00,meteohub,2013-04-02 21:15:00,
2013-04-02 17:20:00,41.5,22.3,29.97,WNW,292,8.0,12.0,46,0.00,,,0.00,meteohub,2013-04-02 21:20:00,
2013-04-02 17:26:00,41.5,22.8,29.97,WNW,291,7.0,13.0,47,0.00,,,0.00,meteohub,2013-04-02 21:26:00,
2013-04-02 17:32:00,41.7,23.5,29.98,WNW,295,7.0,13.0,48,0.00,,,0.00,meteohub,2013-04-02 21:32:00,
2013-04-02 17:37:00,41.5,23.4,29.98,WSW,246,6.0,13.0,48,0.00,,,0.00,meteohub,2013-04-02 21:37:00,
2013-04-02 17:43:00,41.7,24.4,29.98,WNW,298,6.0,12.0,50,0.00,,,0.00,meteohub,2013-04-02 21:43:00,
2013-04-02 17:48:00,41.7,24.4,29.98,WNW,289,5.0,12.0,50,0.00,,,0.00,meteohub,2013-04-02 21:48:00,
2013-04-02 17:53:00,41.7,25.0,29.99,NW,321,9.0,11.0,51,0.00,,,0.00,meteohub,2013-04-02 21:53:00,
2013-04-02 17:58:00,41.9,25.2,29.99,WNW,283,5.0,13.0,51,0.00,,,0.00,meteohub,2013-04-02 21:58:00,
2013-04-02 18:03:00,41.9,23.7,29.99,WNW,288,6.0,13.0,48,0.00,,,0.00,meteohub,2013-04-02 22:03:00,
2013-04-02 18:08:00,41.7,24.4,29.99,WNW,301,6.0,13.0,50,0.00,,,0.00,meteohub,2013-04-02 22:08:00,
2013-04-02 18:13:00,41.7,24.4,29.99,WNW,295,9.0,11.0,50,0.00,,,0.00,meteohub,2013-04-02 22:13:00,
2013-04-02 18:19:00,41.7,23.9,29.99,WNW,298,6.0,11.0,49,0.00,,,0.00,meteohub,2013-04-02 22:19:00,
2013-04-02 18:24:00,41.7,25.3,29.99,WNW,293,7.0,11.0,52,0.00,,,0.00,meteohub,2013-04-02 22:24:00,
2013-04-02 18:29:00,41.5,23.7,29.99,WNW,297,5.0,12.0,49,0.00,,,0.00,meteohub,2013-04-02 22:29:00,
2013-04-02 18:34:00,41.4,24.1,30.00,WNW,298,6.0,12.0,50,0.00,,,0.00,meteohub,2013-04-02 22:34:00,
2013-04-02 18:39:00,41.4,23.2,30.00,NNW,338,6.0,15.0,48,0.00,,,0.00,meteohub,2013-04-02 22:39:00,
2013-04-02 18:44:00,41.4,25.0,30.00,WNW,289,6.0,15.0,52,0.00,,,0.00,meteohub,2013-04-02 22:44:00,
2013-04-02 18:49:00,41.2,23.5,30.00,West,274,10.0,15.0,49,0.00,,,0.00,meteohub,2013-04-02 22:49:00,
2013-04-02 18:54:00,41.0,25.2,30.00,WNW,297,8.0,15.0,53,0.00,,,0.00,meteohub,2013-04-02 22:54:00,
2013-04-02 18:59:00,40.6,25.7,30.01,WNW,283,7.0,14.0,55,0.00,,,0.00,meteohub,2013-04-02 22:59:00,
2013-04-02 19:04:00,40.5,25.2,30.01,WNW,289,8.0,15.0,54,0.00,,,0.00,meteohub,2013-04-02 23:04:00,
2013-04-02 19:09:00,40.1,26.6,30.01,WNW,298,7.0,15.0,58,0.00,,,0.00,meteohub,2013-04-02 23:09:00,
2013-04-02 19:14:00,39.9,23.7,30.01,WNW,288,8.0,14.0,52,0.00,,,0.00,meteohub,2013-04-02 23:14:00,
2013-04-02 19:19:00,39.9,23.7,30.01,West,276,6.0,16.0,52,0.00,,,0.00,meteohub,2013-04-02 23:19:00,
2013-04-02 19:24:00,39.9,25.0,30.01,WNW,301,8.0,16.0,55,0.00,,,0.00,meteohub,2013-04-02 23:24:00,
2013-04-02 19:29:00,39.9,23.7,30.01,WNW,287,8.0,16.0,52,0.00,,,0.00,meteohub,2013-04-02 23:29:00,
2013-04-02 19:35:00,39.9,24.6,30.01,WNW,283,8.0,13.0,54,0.00,,,0.00,meteohub,2013-04-02 23:35:00,
2013-04-02 19:40:00,39.9,23.2,30.01,WNW,287,9.0,13.0,51,0.00,,,0.00,meteohub,2013-04-02 23:40:00,
2013-04-02 19:45:00,39.9,25.0,30.02,WNW,294,8.0,14.0,55,0.00,,,0.00,meteohub,2013-04-02 23:45:00,
2013-04-02 19:50:00,39.9,25.0,30.01,NW,324,6.0,14.0,55,0.00,,,0.00,meteohub,2013-04-02 23:50:00,
2013-04-02 19:55:00,39.9,23.7,30.02,NW,316,13.0,16.0,52,0.00,,,0.00,meteohub,2013-04-02 23:55:00,
2013-04-02 20:00:00,39.9,24.6,30.02,WNW,290,8.0,16.0,54,0.00,,,0.00,meteohub,2013-04-03 00:00:00,
2013-04-02 20:05:00,39.9,22.8,30.02,NW,304,10.0,16.0,50,0.00,,,0.00,meteohub,2013-04-03 00:05:00,
2013-04-02 20:10:00,39.9,25.5,30.02,WNW,300,11.0,18.0,56,0.00,,,0.00,meteohub,2013-04-03 00:10:00,
2013-04-02 20:15:00,39.9,25.5,30.02,NW,319,13.0,18.0,56,0.00,,,0.00,meteohub,2013-04-03 00:15:00,
2013-04-02 20:20:00,39.9,25.9,30.02,NW,309,15.0,18.0,57,0.00,,,0.00,meteohub,2013-04-03 00:20:00,
2013-04-02 20:25:00,39.9,23.7,30.03,WNW,300,12.0,20.0,52,0.00,,,0.00,meteohub,2013-04-03 00:25:00,
2013-04-02 20:30:00,39.9,24.3,30.03,NW,304,7.0,20.0,53,0.00,,,0.00,meteohub,2013-04-03 00:30:00,
2013-04-02 20:35:00,39.9,25.5,30.04,NW,314,12.0,20.0,56,0.00,,,0.00,meteohub,2013-04-03 00:35:00,
2013-04-02 20:41:00,39.9,26.4,30.04,WNW,285,8.0,16.0,58,0.00,,,0.00,meteohub,2013-04-03 00:41:00,
2013-04-02 20:47:00,39.7,25.0,30.04,NW,319,10.0,14.0,55,0.00,,,0.00,meteohub,2013-04-03 00:47:00,
2013-04-02 20:52:00,39.7,24.1,30.04,WNW,287,8.0,14.0,53,0.00,,,0.00,meteohub,2013-04-03 00:52:00,
2013-04-02 20:57:00,39.7,24.4,30.05,WNW,303,8.0,17.0,54,0.00,,,0.00,meteohub,2013-04-03 00:57:00,
2013-04-02 21:02:00,39.7,23.5,30.05,WNW,300,9.0,17.0,52,0.00,,,0.00,meteohub,2013-04-03 01:02:00,
2013-04-02 21:07:00,39.7,25.0,30.05,NW,321,9.0,15.0,55,0.00,,,0.00,meteohub,2013-04-03 01:07:00,
2013-04-02 21:12:00,39.6,24.3,30.05,WNW,302,6.0,15.0,54,0.00,,,0.00,meteohub,2013-04-03 01:12:00,
2013-04-02 21:17:00,39.6,24.3,30.06,NW,319,8.0,14.0,54,0.00,,,0.00,meteohub,2013-04-03 01:17:00,
2013-04-02 21:22:00,39.6,25.5,30.06,NW,307,9.0,14.0,57,0.00,,,0.00,meteohub,2013-04-03 01:22:00,
2013-04-02 21:27:00,39.6,25.5,30.06,WNW,302,9.0,13.0,57,0.00,,,0.00,meteohub,2013-04-03 01:27:00,
2013-04-02 21:32:00,39.4,24.1,30.06,NW,311,7.0,13.0,54,0.00,,,0.00,meteohub,2013-04-03 01:32:00,
2013-04-02 21:37:00,39.4,24.6,30.06,NW,307,8.0,13.0,55,0.00,,,0.00,meteohub,2013-04-03 01:37:00,
2013-04-02 21:42:00,39.4,26.2,30.06,NW,314,7.0,13.0,59,0.00,,,0.00,meteohub,2013-04-03 01:42:00,
2013-04-02 21:47:00,39.4,25.9,30.06,NW,321,9.0,11.0,58,0.00,,,0.00,meteohub,2013-04-03 01:47:00,
2013-04-02 21:52:00,39.4,25.3,30.06,NW,308,7.0,11.0,57,0.00,,,0.00,meteohub,2013-04-03 01:52:00,
2013-04-02 21:57:00,39.4,24.6,30.06,WNW,286,6.0,13.0,55,0.00,,,0.00,meteohub,2013-04-03 01:57:00,
2013-04-02 22:02:00,39.4,26.6,30.06,WNW,301,8.0,13.0,60,0.00,,,0.00,meteohub,2013-04-03 02:02:00,
2013-04-02 22:08:00,39.4,25.9,30.06,WNW,294,6.0,14.0,58,0.00,,,0.00,meteohub,2013-04-03 02:08:00,
2013-04-02 22:13:00,39.2,24.8,30.06,WNW,300,9.0,14.0,56,0.00,,,0.00,meteohub,2013-04-03 02:13:00,
2013-04-02 22:18:00,39.2,24.8,30.06,WNW,302,10.0,12.0,56,0.00,,,0.00,meteohub,2013-04-03 02:18:00,
2013-04-02 22:23:00,39.2,25.7,30.06,WNW,297,7.0,12.0,58,0.00,,,0.00,meteohub,2013-04-03 02:23:00,
2013-04-02 22:28:00,39.2,24.4,30.06,WNW,302,9.0,11.0,55,0.00,,,0.00,meteohub,2013-04-03 02:28:00,
2013-04-02 22:33:00,39.0,23.7,30.06,West,277,6.0,16.0,54,0.00,,,0.00,meteohub,2013-04-03 02:33:00,
2013-04-02 22:38:00,39.0,23.4,30.06,WNW,301,9.0,16.0,53,0.00,,,0.00,meteohub,2013-04-03 02:38:00,
2013-04-02 22:43:00,39.0,25.5,30.06,WNW,303,11.0,16.0,58,0.00,,,0.00,meteohub,2013-04-03 02:43:00,
2013-04-02 22:48:00,39.0,25.5,30.06,NW,316,13.0,16.0,58,0.00,,,0.00,meteohub,2013-04-03 02:48:00,
2013-04-02 22:54:00,39.0,25.5,30.06,WNW,300,8.0,16.0,58,0.00,,,0.00,meteohub,2013-04-03 02:54:00,
2013-04-02 22:59:00,39.0,25.2,30.06,NW,312,10.0,16.0,57,0.00,,,0.00,meteohub,2013-04-03 02:59:00,
2013-04-02 23:05:00,38.8,25.0,30.06,WNW,298,12.0,16.0,57,0.00,,,0.00,meteohub,2013-04-03 03:05:00,
2013-04-02 23:10:00,38.8,23.5,30.06,WNW,289,6.0,16.0,54,0.00,,,0.00,meteohub,2013-04-03 03:10:00,
2013-04-02 23:15:00,38.8,24.4,30.07,WNW,293,9.0,16.0,56,0.00,,,0.00,meteohub,2013-04-03 03:15:00,
2013-04-02 23:20:00,38.7,25.2,30.07,WNW,287,10.0,15.0,58,0.00,,,0.00,meteohub,2013-04-03 03:20:00,
2013-04-02 23:25:00,38.7,23.9,30.08,NW,308,6.0,14.0,55,0.00,,,0.00,meteohub,2013-04-03 03:25:00,
2013-04-02 23:30:00,38.7,23.0,30.08,WNW,301,7.0,14.0,53,0.00,,,0.00,meteohub,2013-04-03 03:30:00,
2013-04-02 23:35:00,38.5,22.8,30.08,WNW,298,10.0,14.0,53,0.00,,,0.00,meteohub,2013-04-03 03:35:00,
2013-04-02 23:40:00,38.5,21.9,30.08,WNW,295,9.0,17.0,51,0.00,,,0.00,meteohub,2013-04-03 03:40:00,
2013-04-02 23:45:00,38.5,21.9,30.08,WNW,290,7.0,17.0,51,0.00,,,0.00,meteohub,2013-04-03 03:45:00,
2013-04-02 23:50:00,38.5,25.0,30.08,West,280,7.0,17.0,58,0.00,,,0.00,meteohub,2013-04-03 03:50:00,
2013-04-02 23:55:00,38.3,22.6,30.08,WNW,287,13.0,18.0,53,0.00,,,0.00,meteohub,2013-04-03 03:55:00,